Voltar ao catálogo

COSMOS 2251 DEB

LostLEO
NORAD 35796·DEBRIS·🇷🇺 Russia

Lançado Jun 16, 1993 de Plesetsk Cosmodrome

Loading…

Próximas Passagens (próximas 24 horas)

TLE

ObsoletoSource: Space-Track

Época: Nov 5, 2024, 23:34 UTC

1 35796U 93036ASS 24310.98235804  .00053853  00000-0  86106-2 0  9997
2 35796  74.0006 199.8729 0022319  49.2922 311.0183 14.71344296658781

Acompanhe COSMOS 2251 DEB em tempo real com AllMySat

Download on the App Store